GAOFEN 1

Last updated on Tue Nov 21 2023 00:02:24 GMT+0000 (Greenwich Mean Time)

1 39150U 13018A 23324.58641085 .00000710 00000+0 10906-3 0 9998 2 39150 98.0148 33.9085 0021428 51.6568 308.6563 14.76496374569592
UTC large
Height (km)
Speed (km/s)
/
Latitude / Longitude
Inclination (degrees)
Orbital Period (minutes)
Azimuth
Elevation
Range (km)
Doppler Factor

Next 0 passes for location: London (51.5072 / 0.1276)

Sorry there are no passes over London.